This is the latest recevied weather packets stored in our database for station/object WX5KDM. If no packets are shown the sender has not sent any weather packets the latest 10 day(s).
| Time | Temp. | Humidity | Pressure | Rain* | Wind** | Luminosity | Snow |
|---|---|---|---|---|---|---|---|
| 1788373943 | 36.11° C | 47% | 1017.8 hPa | 0 mm | - | - | - |
| 1788373639 | 35.56° C | 47% | 1017.9 hPa | 0 mm | - | - | - |
| 1788373335 | 35° C | 51% | 1017.8 hPa | 0 mm | - | - | - |
| 1788373031 | 35.56° C | 50% | 1017.9 hPa | 0 mm | - | - | - |
| 1788372725 | 36.67° C | 47% | 1018.2 hPa | 0 mm | - | - | - |
| 1788372442 | 36.67° C | 46% | 1018.3 hPa | 0 mm | - | - | - |
| 1788372116 | 36.11° C | 47% | 1018.4 hPa | 0 mm | - | - | - |
| 1788371815 | 36.11° C | 49% | 1018.4 hPa | 0 mm | - | - | - |
| 1788371512 | 36.11° C | 49% | 1018.6 hPa | 0 mm | - | - | - |
| 1788371207 | 35.56° C | 49% | 1018.6 hPa | 0 mm | - | - | - |
| 1788370903 | 35.56° C | 51% | 1018.8 hPa | 0 mm | - | - | - |
| 1788370598 | 35° C | 51% | 1018.9 hPa | 0 mm | - | - | - |
| 1788370293 | 34.44° C | 52% | 1018.9 hPa | 0 mm | - | - | - |
| 1788369992 | 35° C | 51% | 1018.8 hPa | 0 mm | - | - | - |
| 1788369692 | 35.56° C | 49% | 1018.9 hPa | 0 mm | - | - | - |
| 1788369387 | 35° C | 51% | 1018.9 hPa | 0 mm | - | - | - |
| 1788369083 | 34.44° C | 54% | 1019 hPa | 0 mm | - | - | - |
| 1788368779 | 33.89° C | 53% | 1019 hPa | 0 mm | - | - | - |
| 1788368475 | 34.44° C | 52% | 1019.3 hPa | 0 mm | - | - | - |
| 1788368174 | 35.56° C | 50% | 1019.3 hPa | 0 mm | - | - | - |
| 1788367869 | 35° C | 52% | 1019.3 hPa | 0 mm | - | - | - |
| 1788367564 | 34.44° C | 54% | 1019.6 hPa | 0 mm | - | - | - |
| 1788367262 | 35° C | 52% | 1019.5 hPa | 0 mm | - | - | - |
| 1788366958 | 34.44° C | 53% | 1019.6 hPa | 0 mm | - | - | - |
| 1788366656 | 34.44° C | 54% | 1019.6 hPa | 0 mm | - | - | - |
* Rain latest hour (hover to see other rain measurements)
** Current wind speed in m/s (hover to see current wind gust speed)